Flag for Seychelles Weather past 2 weeks in Victoria, Seychelles

Now
82 °F

Passing clouds.


Feels Like: 87 °F
Forecast: 74 / 77 °F
Wind: 15 mph from Southeast

Location: National Airport

Current Time: Jul 24, 2014 at 5:27:58 PM

Latest Report: Jul 24, 2014 at 4:00 PM


Visibility: N/A

Pressure: 29.86 "Hg

Humidity: 70%

Dew point: 72 °F

Location of VictoriaLocation

Historic Weather in Victoria — Graph

°F

Victoria temperature yesterday

Maximum temperature yesterday: 84 °F (at 1:00 PM)
Minimum temperature yesterday: 79 °F (at 3:00 AM)
Average temperature yesterday: 81 °F

Past Weeks' High & Low Weather Summary

 TemperatureHumidityPressure
High84 °F (Jul 11, 12:00 PM)89% (Jul 10, 5:00 AM)30.04 "Hg (Jul 10, 5:00 AM)
Low73 °F (Jul 10, 5:00 AM)58% (Jul 12, 1:00 PM)29.83 "Hg (Jul 9, 4:00 PM)
Average80 °F79%29.91 "Hg
* Reported Jul 9 4:00 PM — Jul 24 4:00 PM, Victoria, Weather by CustomWeather, © 2014

Note: Actual official high and low records may vary slightly from our data, if they occured in-between our weather recording intervals... More about our weather records

Advertising

Victoria weather history for previous 24 hours

 ConditionsComfort  
Time TempWeatherWind HumidityBarometerVisibility
4:00 PM
Jul 24
82 °FPassing clouds.15 mph70%29.86 "HgN/A
3:00 PM82 °FScattered clouds.14 mph70%29.89 "HgN/A
2:00 PM82 °FScattered clouds.12 mph70%29.89 "HgN/A
1:00 PM84 °FPassing clouds.13 mph66%29.92 "HgN/A
12:00 PM84 °FPartly sunny.13 mph66%29.95 "HgN/A
11:00 AM82 °FScattered clouds.13 mph79%29.98 "HgN/A
10:00 AM82 °FScattered clouds.13 mph79%29.98 "HgN/A
9:00 AM82 °FScattered clouds.13 mph79%29.98 "HgN/A
8:00 AM81 °FScattered clouds.13 mph84%29.95 "HgN/A
7:00 AM79 °FPartly sunny.13 mph89%29.92 "HgN/A
6:00 AM79 °FPassing clouds.9 mph89%29.89 "HgN/A
5:00 AM79 °FPassing clouds.12 mph84%29.89 "HgN/A
4:00 AM79 °FPassing clouds.14 mph84%29.89 "HgN/A
3:00 AM79 °FPassing clouds.12 mph89%29.89 "HgN/A
2:00 AM79 °FPassing clouds.18 mph89%29.89 "HgN/A
1:00 AM79 °FPassing clouds.13 mph89%29.89 "HgN/A
12:00 AM79 °FPassing clouds.13 mph89%29.92 "HgN/A
11:00 PM
Jul 23
79 °FPassing clouds.8 mph89%29.95 "HgN/A
10:00 PM79 °FPassing clouds.7 mph89%29.95 "HgN/A
9:00 PM79 °FPassing clouds.6 mph89%29.95 "HgN/A
8:00 PM79 °FPassing clouds.5 mph89%29.92 "HgN/A
7:00 PM79 °FPassing clouds.7 mph89%29.92 "HgN/A
6:00 PM81 °FScattered clouds.8 mph84%29.89 "HgN/A
5:00 PM82 °FScattered clouds.9 mph79%29.86 "HgN/A
Weather by CustomWeather, © 2014

See weather overviewHow to use our weather pages